Hourly Weather Roundup
Issued by NWS Central Illinois

Home | Current Version | Previous Version | Text Only | Print | Product List | Glossary On
Versions: 1 2 3 4 5 6 7 8 9 10 11 12 13 14 15 16 17 18 19 20 21 22 23 24 25 26 27 28 29 30 31 32 33 34 35 36 37 38 39 40 41 42 43 44 45 46 47 48 49 50
000
NZUS43 KILX 210110
HWRILX

AREA WEATHER ROUNDUP
NATIONAL WEATHER SERVICE, LINCOLN IL
800 PM CDT WED AUG 20 2014


CITY           SKY/WX    TMP DP  RH WIND       PRES   REMARKS
BLOOMINGTON    PTCLDY    75  68  79 SW9       29.93F
CHAMPAIGN      MOCLDY    73  70  90 S7        29.94S
DECATUR        CLEAR     75  71  87 S5        29.94S
FLORA          CLEAR     74  71  89 S5        29.97R
GALESBURG      MOCLDY    75  71  86 CALM      29.89F
JACKSONVILLE   PTCLDY    79  73  82 S5        29.92S HX  82
LACON          MOCLDY    74  71  88 W3        29.89S
LAWRENCEVILLE  CLEAR     75  72  90 CALM      29.97R
LITCHFIELD     CLEAR     74  71  89 SE6       29.94R
$$


CITY           SKY/WX    TMP DP  RH WIND       PRES   REMARKS
LINCOLN        PTCLDY    77  72  83 CALM      29.90R
MACOMB         PTCLDY    75  74  94 SE3       29.92S
MATTOON        CLEAR     73  70  90 CALM      29.95R
MT CARMEL AP   CLEAR     77  72  83 CALM      29.97R
OLNEY-NOBLE AP CLEAR     72  72 100 CALM      29.98R
PARIS          CLEAR     71  70  99 S5        29.96S
PEORIA         CLEAR     77  71  82 S3        29.90F
PONTIAC        CLOUDY    73  72  94 CALM      29.90F
RANTOUL        CLOUDY    75  69  79 CALM      29.94S
ROBINSON       CLEAR     73  71  93 S3        29.97R
SPRINGFIELD    PTCLDY    77  71  82 S3        29.92F
TAYLORVILLE    CLEAR     72  70  94 SE5       29.93R
$$

...REGIONAL REPORTS...


CITY           SKY/WX    TMP DP  RH WIND       PRES   REMARKS
CHICAGO O`HARE MOCLDY    80  64  58 W6        29.88S HX  82
KANKAKEE       PTCLDY    72  68  86 SW3       29.92S
MOLINE         MOCLDY    76  69  79 CALM      29.89S
MOUNT VERNON   CLEAR     77  68  73 CALM      29.97R
PITTSFIELD     CLEAR     79  74  85 SE5       29.91F HX  83
QUINCY         CLEAR     81  77  88 S6        29.89S HX  88
ROCKFORD       MOCLDY    77  68  73 SW13G18   29.92R
$$


CITY           SKY/WX    TMP DP  RH WIND       PRES   REMARKS
BURLINGTON     MOCLDY    75  72  90 S6        29.87F
CEDAR RAPIDS   CLOUDY    73  70  90 E5        29.89R
DES MOINES     PTCLDY    80  73  79 S7        29.82S HX  84
KIRKSVILLE     CLEAR     80  75  84 SE7       29.88F HX  85
OTTUMWA        PTCLDY    77  73  87 S6        29.85F
ST LOUIS       MOCLDY    84  73  70 SW13G22   29.96R THUNDER HX  91
$$


CITY           SKY/WX    TMP DP  RH WIND       PRES   REMARKS
TERRE HAUTE    PTCLDY    72  67  84 CALM      29.98R
EVANSVILLE     MOCLDY    78  70  76 CALM      30.00R HX  80
INDIANAPOLIS   MOCLDY    74  67  78 SW8       29.97R
LAFAYETTE      PTCLDY    72  67  84 CALM      29.92F
MADISON        MOCLDY    76  68  76 CALM      29.89R
MILWAUKEE      MOCLDY    69  65  86 NE6       29.89F
$$




USA.gov is the U.S. government's official web portal to all federal, state and local government web resources and services.